GFSGL_sfc_rhum_003.txt.gz
RH
86 92 88 93 91 91 94 94 93 93 95 97 95 94 93 92 93 97 97 96 95 96 95 95 95 91 94 96 94 94 94 86 96 96 97 94 97 98 98 98 96 98 98
84 88 87 84 91 92 90 91 91 93 92 97 97 96 96 97 97 95 95 96 96 94 95 93 92 83 94 95 96 93 87 81 91 93 95 98 97 97 94 85 93 89 87
84 80 81 79 88 90 91 91 91 90 91 92 95 95 97 95 95 95 94 94 93 92 94 95 95 93 95 96 95 91 96 96 92 95 98 99 98 97 93 83 82 90 89
80 79 78 74 76 91 93 93 92 93 94 96 95 95 92 92 93 94 96 98 97 97 96 96 95 96 96 96 95 95 96 95 93 96 99 97 90 94 95 93 81 82 80
78 79 80 80 80 84 92 92 90 93 95 96 95 94 93 93 94 97 96 97 97 98 97 96 95 90 86 90 97 98 96 97 96 94 98 98 98 96 95 94 89 91 82
67 83 74 80 79 89 91 93 92 96 96 95 95 92 94 85 97 95 94 97 96 96 98 97 94 87 89 90 87 87 91 97 97 96 99 99 99 96 95 95 85 85 73
66 74 74 76 81 84 93 94 96 95 90 92 92 89 83 82 94 97 95 97 92 94 97 98 96 91 86 84 73 68 74 80 88 97 98 98 96 96 94 93 90 86 88
85 80 84 80 81 94 95 95 94 90 86 81 82 80 80 81 91 98 84 73 76 81 78 73 77 80 81 64 53 53 58 58 57 67 83 79 78 72 77 77 78 83 81
98 90 94 92 94 95 95 95 89 85 86 89 89 79 74 78 91 83 70 65 69 78 81 85 80 84 83 73 57 65 70 72 80 81 79 79 79 80 72 57 64 58 61
97 97 96 91 94 95 94 94 86 85 88 86 93 94 85 80 91 86 63 55 62 66 66 67 80 80 88 88 71 70 76 80 81 73 69 73 69 70 74 70 73 78 72
95 95 96 96 98 97 97 96 94 90 93 96 96 93 91 89 92 88 79 60 65 70 72 75 78 84 85 85 81 87 94 89 83 83 79 70 67 65 80 95 91 82 80
96 97 98 98 97 96 96 97 91 92 95 97 98 99 99 98 95 97 95 88 82 82 91 90 91 93 93 92 87 90 87 82 86 93 93 76 54 56 65 66 64 68 73
97 98 98 97 97 96 97 98 98 97 98 99 99 99 99 99 99 97 97 95 93 98 99 96 93 92 88 86 78 75 74 70 64 62 70 66 66 61 53 48 54 71 74
97 97 97 98 96 94 88 88 90 93 96 96 98 99 99 99 99 99 99 98 92 96 89 93 88 85 88 71 74 67 67 70 74 74 67 60 65 52 55 49 49 50 54
76 72 68 66 69 74 76 73 76 84 82 88 89 78 71 69 74 83 95 95 94 89 77 90 89 92 91 86 84 73 71 71 70 74 66 62 55 56 46 48 51 59 56
60 57 55 52 54 58 53 58 78 78 78 79 72 63 78 82 83 82 80 78 77 74 82 77 78 72 68 70 73 82 76 68 73 80 73 66 61 62 52 51 62 63 65
53 55 55 53 51 52 52 51 53 66 77 77 78 80 74 73 71 71 72 74 69 71 66 69 70 71 75 77 74 74 73 74 81 76 70 71 63 58 57 59 62 67 64
64 68 56 53 48 48 48 45 54 66 66 66 70 64 69 66 66 71 76 67 65 63 59 68 70 74 78 75 72 70 66 69 62 68 74 66 62 58 59 60 63 67 64
61 63 61 62 60 52 52 54 62 63 65 64 62 65 67 70 70 71 76 68 61 55 64 63 64 68 69 65 68 73 70 72 60 73 67 61 63 60 59 63 59 60 62
66 67 62 56 60 61 60 60 64 62 64 65 67 60 58 57 59 61 63 56 54 54 56 61 64 59 64 62 67 63 67 72 68 66 62 63 64 61 63 61 58 59 64
52 57 59 57 56 55 65 63 61 57 61 67 55 53 64 63 61 55 52 52 49 56 56 54 58 60 68 69 62 69 64 68 68 66 66 66 65 63 67 59 53 52 57
56 54 54 60 64 65 68 69 65 63 52 48 43 36 50 46 49 51 52 51 54 57 54 54 54 51 57 56 59 59 60 70 68 65 66 61 61 63 65 56 56 57 52
55 52 58 66 64 65 67 68 70 64 51 48 37 33 37 46 48 51 52 52 54 57 54 55 54 58 62 62 66 68 67 66 68 66 60 58 63 67 68 63 60 55 50
48 49 54 61 65 64 68 67 65 54 50 46 39 42 46 46 54 48 53 52 50 53 56 55 52 48 53 59 67 64 66 71 63 60 61 64 67 68 69 67 60 48 49
40 50 51 61 61 60 61 65 65 51 43 38 41 39 45 45 52 51 56 54 53 61 56 57 53 49 62 61 62 60 71 78 59 62 60 59 61 62 68 60 54 53 50
43 47 47 58 58 56 58 60 57 49 46 42 43 46 46 47 48 54 56 53 53 64 61 61 51 54 59 62 61 68 79 78 64 69 60 66 66 66 65 54 49 52 52

GFSGL_sfc_rhum_006.txt.gz
RH
94 94 94 95 93 93 95 96 94 96 97 98 98 97 96 94 94 96 97 99 99 98 98 98 98 98 99 99 98 98 97 98 98 98 98 97 97 97 98 98 98 99 99
92 94 92 93 94 94 94 94 94 96 97 98 97 97 98 99 98 98 98 97 97 98 97 98 96 97 99 98 98 97 96 97 98 95 97 99 99 98 98 98 97 93 97
90 94 92 91 94 95 94 95 95 96 98 98 97 97 97 96 96 96 95 95 95 96 97 97 98 95 98 98 98 98 98 98 97 98 100 99 99 98 95 86 83 96 89
90 88 93 92 94 95 96 95 96 97 98 98 98 97 95 93 93 93 94 96 97 97 97 96 96 96 96 96 96 97 98 98 98 99 99 99 97 95 96 95 78 86 96
87 85 87 88 94 96 95 96 96 97 98 97 97 98 98 96 96 98 98 98 98 98 98 97 96 94 94 94 98 98 96 98 98 99 99 99 99 99 97 93 82 85 84
77 81 76 82 90 96 97 98 98 99 98 97 97 95 94 89 96 95 95 98 98 98 98 98 98 95 95 93 93 94 96 96 98 98 99 99 100 99 98 99 96 91 81
79 88 78 82 88 97 98 97 98 97 94 94 93 92 93 89 98 96 94 95 91 94 97 97 96 94 94 89 81 76 79 87 94 98 98 97 94 96 95 95 92 93 90
93 92 90 94 94 96 96 97 97 89 83 78 78 86 93 93 94 87 84 81 86 88 81 76 86 93 84 58 62 65 63 62 58 70 89 88 76 75 82 77 81 86 77
98 93 92 96 97 96 97 97 94 92 95 97 89 78 82 86 88 82 71 69 74 82 85 89 92 84 79 75 65 69 73 72 79 83 82 82 82 82 73 64 70 65 73
97 98 95 92 94 96 96 96 90 90 93 90 89 84 85 82 90 79 63 62 74 71 69 76 83 82 86 85 80 85 85 83 75 72 74 73 71 75 77 77 78 78 80
96 97 97 97 98 97 97 95 94 93 96 98 97 92 88 85 85 85 77 64 69 75 79 83 90 88 90 88 83 78 86 86 84 83 76 70 63 70 79 92 91 89 94
97 98 98 98 97 96 96 97 94 91 94 98 98 99 99 98 95 95 92 86 82 83 91 93 94 91 91 90 80 84 84 76 80 85 84 62 56 54 56 67 66 67 72
97 98 98 98 98 98 98 99 99 97 98 99 99 99 99 99 99 96 96 94 91 96 98 95 91 91 85 85 81 79 72 63 58 56 57 69 71 62 49 47 47 54 80
98 98 98 98 98 98 99 98 96 93 98 96 98 99 99 99 99 99 99 98 92 95 89 90 83 80 81 77 74 76 79 80 78 78 74 74 71 59 50 57 57 63 61
78 85 86 89 83 87 80 83 86 94 92 91 93 80 76 83 83 85 92 86 90 86 89 94 93 93 91 94 87 80 79 76 81 83 70 63 62 61 51 56 58 65 65
60 58 59 56 52 53 52 59 76 80 79 78 76 75 80 82 86 83 78 75 78 81 77 80 79 78 80 83 86 79 80 80 88 77 77 69 65 61 58 60 70 73 69
61 60 57 52 54 59 59 51 53 61 80 83 81 78 73 76 77 76 74 71 74 71 71 80 85 84 86 81 77 76 77 72 72 75 79 71 61 57 60 65 72 68 64
68 73 63 55 53 55 50 42 46 48 60 66 69 68 71 70 72 77 76 71 65 71 78 76 83 80 78 74 76 72 71 72 72 78 67 66 66 60 60 66 65 69 70
66 65 65 64 61 61 60 66 69 64 61 60 61 60 64 65 66 71 72 67 64 70 73 72 76 73 71 70 76 74 74 82 75 72 67 66 67 66 66 67 65 67 67
65 63 63 65 65 65 66 69 75 66 62 60 58 54 60 59 59 67 65 60 61 65 69 66 67 69 64 67 66 74 74 80 68 67 68 67 69 69 70 68 61 60 65
73 71 69 68 66 59 64 65 66 63 65 70 68 67 67 58 64 67 58 59 61 61 62 61 66 67 71 69 68 70 73 72 72 71 67 66 66 64 74 67 65 67 70
63 57 60 61 69 68 66 70 63 71 68 65 59 51 72 53 57 57 58 56 60 57 56 59 60 66 69 63 64 67 74 71 70 70 65 61 65 70 75 70 69 69 62
59 56 62 67 64 71 68 70 73 66 61 50 42 37 43 55 56 57 57 60 63 59 59 63 64 66 66 70 74 75 70 67 68 67 60 58 66 74 78 74 72 62 60
56 58 61 59 64 68 71 74 75 65 52 47 38 42 47 54 58 58 58 60 62 62 66 60 56 56 67 73 75 77 78 72 68 62 66 67 69 72 75 74 64 58 59
51 58 65 64 64 68 76 72 72 55 52 50 42 45 51 59 57 56 61 58 60 68 63 60 57 54 59 64 67 66 73 76 62 66 61 61 64 68 73 69 62 59 54
54 57 69 69 69 69 71 73 69 62 52 49 43 49 49 53 56 61 64 62 65 66 62 62 57 58 59 63 62 68 79 78 60 60 58 69 70 74 75 72 69 56 58

GFSGL_sfc_rhum_009.txt.gz
RH
95 95 95 94 92 95 97 97 97 98 98 99 98 99 99 96 96 99 98 99 99 99 98 98 99 98 99 99 99 98 98 99 99 96 99 99 99 99 98 98 97 98 98
95 94 94 94 92 95 96 96 96 98 98 98 98 99 98 98 99 99 98 98 98 98 99 98 99 97 99 99 99 99 98 98 98 97 99 99 99 99 99 98 98 96 97
96 94 93 94 95 95 96 96 97 98 98 98 98 97 98 98 98 98 97 98 98 99 99 98 99 99 99 100 99 99 99 99 99 99 100 99 100 98 96 84 88 95 84
95 95 94 93 94 96 97 97 98 98 98 99 99 98 98 94 91 93 95 97 98 98 98 97 97 96 97 98 99 99 99 99 99 99 100 100 99 99 98 96 90 93 96
93 90 94 94 96 97 97 98 99 98 99 98 98 98 98 96 96 98 96 97 97 98 98 98 98 95 93 94 98 98 97 98 99 99 99 99 100 99 98 98 92 89 90
94 87 81 95 97 98 98 99 98 98 98 98 98 94 98 95 97 95 96 98 98 98 99 99 99 97 97 97 96 95 97 99 98 99 99 99 99 99 99 100 99 97 94
92 90 84 96 98 99 98 98 98 97 93 95 94 94 94 97 97 95 93 96 92 95 96 98 97 95 91 87 76 70 72 77 90 98 98 99 96 98 97 99 99 99 98
99 96 95 97 98 99 98 98 97 95 92 93 93 97 94 94 92 91 87 86 89 92 88 85 92 79 71 63 64 68 71 73 68 70 90 95 89 87 90 89 96 98 98
97 97 96 96 98 98 98 98 97 96 98 97 88 82 87 84 87 83 77 79 81 86 92 95 83 82 82 80 75 81 80 81 78 81 81 82 83 84 73 61 69 71 75
97 98 98 95 96 98 98 98 93 86 97 93 90 82 86 78 83 80 68 68 83 84 86 90 85 87 86 85 77 76 80 85 74 71 68 66 67 70 75 70 74 78 82
97 97 98 97 98 97 96 94 93 96 98 97 98 90 86 79 82 85 80 65 73 75 81 87 93 90 89 87 81 76 85 87 84 76 67 58 55 63 74 90 91 86 93
97 98 98 98 98 96 96 97 95 96 96 97 98 99 98 98 93 93 92 87 81 81 90 90 92 88 86 84 74 84 84 77 70 77 69 58 53 50 50 66 58 72 79
98 98 98 98 98 98 98 99 99 98 99 99 99 99 99 99 99 96 94 92 90 96 97 92 89 87 80 77 83 81 74 71 67 65 69 76 76 69 55 54 57 61 67
98 98 98 98 99 99 99 99 99 99 99 98 98 99 99 99 99 99 98 97 91 94 85 78 81 81 83 78 77 79 83 88 81 77 73 74 68 56 53 63 60 67 61
88 91 94 98 98 98 98 97 94 88 90 92 93 87 89 89 92 90 90 79 74 76 88 91 85 88 94 88 80 84 88 85 82 82 68 64 62 60 57 68 76 70 74
63 60 56 53 53 54 55 59 78 83 83 84 82 72 83 84 86 79 74 76 81 81 77 80 85 89 90 88 76 74 77 76 84 80 76 69 63 63 63 69 75 75 71
66 62 58 54 47 55 59 59 60 67 79 84 82 80 79 81 79 76 74 82 78 72 79 92 87 84 86 81 78 79 80 77 84 76 68 67 62 61 65 68 75 73 71
67 63 56 57 55 54 52 54 57 59 62 66 71 71 74 73 74 78 82 74 70 76 84 87 86 82 80 78 82 78 81 77 78 70 68 69 67 64 65 67 68 75 75
65 64 62 60 60 60 62 63 58 59 62 64 63 62 63 71 78 79 76 68 71 76 81 84 83 78 74 76 78 77 82 79 77 69 70 70 70 70 70 71 66 62 68
68 59 61 62 65 63 68 71 67 60 58 58 58 56 57 56 61 66 62 63 68 71 73 74 74 73 70 74 74 78 86 76 71 70 70 68 68 74 73 68 67 69 69
69 72 66 69 66 66 67 69 68 64 59 60 57 59 69 54 61 65 58 60 61 64 66 71 70 72 70 70 75 74 75 73 72 72 70 66 65 68 80 73 74 74 73
73 77 75 71 70 66 61 64 77 68 66 64 69 65 77 62 63 62 58 59 63 63 64 63 67 68 72 69 72 73 74 71 74 73 69 63 64 78 81 76 74 70 65
69 65 67 72 75 76 72 71 71 67 63 63 60 51 56 52 59 58 56 58 64 62 66 66 66 68 71 72 76 77 75 73 71 72 67 64 66 78 83 77 72 64 63
62 65 66 74 73 76 72 74 72 70 62 58 46 42 45 54 54 56 59 62 64 66 68 69 65 60 64 75 80 80 75 74 73 68 67 66 71 74 79 76 67 62 62
54 61 74 74 71 74 74 75 74 64 58 51 39 41 47 56 58 59 63 64 67 70 68 66 61 58 64 66 71 72 79 81 67 69 64 62 64 71 78 76 68 64 58
56 61 77 80 75 70 73 77 75 72 63 51 46 43 45 52 54 59 65 67 68 70 70 65 61 57 58 64 63 69 80 84 70 71 58 66 74 74 79 76 79 71 65

GFSGL_sfc_rhum_012.txt.gz
RH
94 92 91 91 90 93 94 95 96 96 97 98 98 96 95 94 96 98 97 96 96 96 96 97 95 95 99 99 99 99 98 98 99 98 99 98 95 96 98 98 96 94 95
93 92 92 92 89 92 94 94 96 97 96 97 97 97 96 95 96 95 93 93 94 96 96 97 97 97 98 99 100 99 99 99 99 98 99 99 99 98 96 96 97 95 97
94 92 92 93 93 93 94 96 96 95 95 94 95 95 95 95 96 96 96 98 98 98 96 97 98 98 99 100 100 100 100 100 100 99 100 100 100 98 96 95 94 96 82
94 92 91 93 93 95 96 98 96 95 96 96 96 95 94 92 91 92 94 96 97 98 98 98 98 99 99 99 99 99 99 99 99 99 100 100 99 100 99 98 99 98 98
94 92 93 90 93 95 97 97 95 95 95 95 94 94 93 91 89 94 94 96 97 98 98 98 98 97 97 96 99 99 99 99 99 99 100 99 100 100 99 99 99 99 99
92 89 91 93 95 95 97 96 94 95 96 95 94 92 93 88 96 94 93 95 94 96 99 98 98 96 95 92 91 92 97 99 98 99 99 100 100 100 99 100 98 98 99
93 91 93 95 96 96 96 94 94 95 93 94 94 93 95 93 95 94 91 90 86 90 96 97 94 87 84 86 78 75 78 83 92 97 97 98 98 99 99 99 99 99 100
96 95 95 96 95 97 96 95 94 88 90 91 92 93 89 87 91 88 84 84 86 89 86 75 77 78 78 70 69 71 74 77 74 77 95 98 90 92 93 98 98 99 99
96 97 96 96 96 97 97 96 91 89 90 89 86 91 88 82 87 85 82 81 82 85 82 81 80 80 85 81 76 79 77 72 73 80 79 79 81 81 78 70 76 70 74
97 97 97 95 96 98 97 96 90 87 88 84 82 82 80 80 88 84 76 73 79 77 81 83 84 82 87 86 77 77 78 76 68 64 60 66 72 71 77 76 68 77 80
97 97 98 97 98 96 97 93 93 91 94 94 92 84 84 82 84 86 82 71 72 74 76 76 73 83 83 84 87 79 83 81 68 60 54 51 50 54 62 72 87 79 90
97 98 98 98 98 97 96 97 94 95 96 96 97 98 97 97 93 94 93 89 84 80 82 77 81 85 87 84 74 81 78 72 64 56 49 46 42 47 49 52 64 72 71
98 98 98 98 98 98 98 99 99 99 99 99 99 99 99 99 99 94 94 91 88 92 95 88 84 78 75 72 83 81 69 53 51 48 48 48 48 46 54 53 57 65 76
98 98 98 99 99 99 99 99 99 100 99 99 99 99 99 99 98 98 97 92 87 87 79 74 76 74 75 69 64 65 63 55 51 49 48 47 45 44 46 50 46 48 51
89 92 94 98 98 99 99 99 99 99 97 97 97 91 89 87 91 94 87 71 69 76 69 64 63 61 57 58 60 62 58 56 53 51 47 44 43 44 46 52 51 48 48
72 68 74 75 77 80 78 83 83 87 86 86 85 83 80 86 84 82 82 87 85 77 61 60 66 64 58 56 54 54 54 58 58 50 47 45 44 46 47 51 49 49 49
68 61 53 50 48 53 52 55 60 63 78 85 85 84 81 79 78 80 85 85 80 70 59 60 61 59 59 57 55 54 52 57 63 48 47 47 45 45 45 46 49 49 48
64 60 51 50 48 47 50 52 51 54 57 58 70 68 76 76 79 83 82 72 58 64 61 60 60 59 58 57 55 53 55 52 49 48 48 47 47 46 44 45 46 51 50
52 50 51 49 49 50 49 46 46 54 57 57 53 58 62 80 82 81 78 57 56 56 60 60 60 57 56 57 56 59 62 53 50 48 48 47 47 46 48 45 43 55 53
56 57 54 52 50 50 48 44 46 52 55 53 51 48 47 53 50 53 56 56 55 53 55 56 57 56 55 58 57 58 58 56 52 47 48 47 47 49 46 46 45 45 47
52 57 56 50 48 50 52 50 48 48 49 50 50 50 68 48 48 46 46 50 50 51 54 53 48 49 51 58 56 55 52 52 50 50 47 45 46 44 52 50 48 46 43
58 56 57 52 54 55 54 55 56 50 48 47 49 52 76 50 49 50 48 47 48 50 48 51 47 45 46 48 53 51 50 49 52 53 50 46 45 48 51 48 45 42 41
60 60 60 64 62 66 59 55 58 60 52 51 50 48 50 52 48 49 47 45 50 50 50 50 46 44 47 53 52 53 47 50 51 52 49 48 45 43 51 49 44 40 39
59 61 62 61 65 64 65 65 63 68 58 56 55 53 49 50 46 48 47 46 49 51 52 51 51 45 51 52 54 54 55 55 53 49 50 46 39 51 49 50 43 42 39
61 61 57 63 64 64 64 63 62 60 60 58 52 49 41 42 44 43 48 49 51 53 52 52 50 48 48 50 49 50 65 84 59 63 47 42 40 50 50 48 46 43 41
49 56 58 67 69 67 66 64 63 65 60 56 52 47 41 39 40 42 48 52 52 51 51 50 51 49 47 46 47 59 82 87 66 76 42 38 39 47 50 51 53 49 45

GFSGL_sfc_rhum_015.txt.gz
RH
72 75 73 72 73 77 77 79 83 83 84 88 90 90 89 83 82 91 92 88 89 89 89 91 87 86 78 77 78 83 86 87 96 94 97 97 96 97 98 95 87 91 94
71 75 72 73 72 73 76 78 80 82 82 82 90 94 91 90 90 86 87 85 85 86 85 90 88 89 92 92 93 94 99 99 100 99 99 99 99 98 96 96 90 93 97
70 71 69 71 74 77 77 81 78 79 79 78 81 84 88 91 92 94 94 96 98 96 94 92 95 94 99 100 99 99 99 99 99 100 100 100 100 98 98 97 97 96 93
68 68 71 70 74 75 79 82 80 78 77 78 79 79 80 79 80 84 88 93 97 97 98 98 98 98 99 99 99 99 100 100 99 99 100 100 100 100 99 99 99 99 99
72 67 72 71 75 78 86 83 80 80 81 80 79 78 76 75 77 86 86 86 94 96 96 97 97 96 96 96 99 100 99 99 99 99 99 99 100 100 99 99 99 99 99
69 68 72 75 76 81 90 82 81 82 83 82 81 78 78 70 96 92 85 87 89 92 96 94 95 94 91 89 89 91 96 99 99 99 99 99 99 99 99 99 99 99 99
75 72 76 77 79 86 89 80 81 86 85 87 85 80 83 80 91 91 87 75 80 85 87 83 73 72 80 74 75 77 80 86 89 93 93 97 93 95 97 98 97 98 99
90 82 78 82 83 90 85 83 84 82 84 86 89 85 81 77 88 88 83 76 66 64 66 66 66 66 66 61 60 60 60 64 64 57 74 84 91 90 94 97 95 98 98
87 90 90 90 91 92 88 87 79 79 82 84 85 84 82 78 87 88 74 67 63 65 63 63 61 64 86 77 60 65 61 53 66 77 77 78 81 83 74 59 65 58 57
86 94 96 94 95 95 92 88 81 77 78 72 76 76 80 75 89 86 67 50 62 58 63 64 84 72 89 87 63 63 64 59 51 50 48 56 58 54 69 61 42 58 59
93 95 97 98 98 96 94 84 81 78 81 88 81 77 77 77 79 88 83 62 61 61 56 57 56 83 85 86 85 70 73 58 54 48 39 32 32 34 32 48 60 43 50
95 96 97 98 98 97 96 95 91 85 86 86 86 95 82 92 90 94 91 85 77 68 63 60 63 86 87 82 70 81 75 57 36 34 32 32 31 30 33 39 58 56 52
96 98 98 98 97 97 98 99 99 97 97 98 99 99 98 97 93 93 91 87 84 75 77 74 77 77 75 65 81 72 60 36 33 32 33 33 32 36 40 41 47 62 66
97 97 98 98 98 99 99 99 99 99 99 99 99 99 98 97 94 92 91 81 81 56 62 48 63 65 69 55 46 44 36 34 34 34 34 32 30 30 32 32 30 32 36
88 89 91 95 96 98 99 99 99 99 98 99 99 96 78 80 81 83 73 72 69 65 52 43 40 39 40 40 40 40 37 36 37 35 33 31 30 30 33 32 32 30 31
77 76 76 78 80 80 80 81 85 92 93 92 90 81 76 84 89 87 88 88 83 78 46 43 42 41 41 40 39 39 39 42 37 34 32 30 29 30 33 32 31 32 34
67 63 56 56 56 62 59 60 67 71 83 87 86 85 84 78 83 88 85 84 78 66 38 41 44 42 42 40 37 34 36 38 46 33 32 32 30 30 32 31 32 33 34
54 60 32 28 28 28 32 36 40 46 51 52 70 65 78 80 85 85 81 68 40 45 35 39 42 42 40 38 37 35 35 35 34 34 34 31 29 30 30 31 30 33 33
32 30 30 29 27 33 29 28 29 36 40 45 43 52 63 83 85 83 74 33 32 32 33 37 39 37 37 37 40 42 44 36 35 34 34 34 34 31 32 30 29 48 45
37 52 44 31 29 28 27 28 32 37 38 40 38 34 33 43 36 39 39 38 33 30 32 34 37 37 38 41 40 39 38 41 40 34 35 35 36 34 31 30 29 30 31
32 34 49 31 31 30 29 29 30 32 33 34 36 36 66 32 29 30 32 35 31 30 33 34 32 33 35 40 37 37 32 32 35 35 35 35 36 32 34 32 30 30 29
32 32 32 31 33 36 34 34 33 31 31 31 32 35 70 32 28 28 29 29 28 31 31 35 30 30 28 29 35 34 32 32 34 36 37 35 35 32 30 30 30 29 28
36 35 36 38 39 49 41 37 38 39 36 34 31 29 30 30 30 31 30 30 30 33 35 36 32 27 27 32 33 34 30 32 33 35 37 36 35 30 27 31 30 28 28
38 39 38 39 43 44 43 42 41 52 40 38 36 36 33 31 29 33 32 30 32 32 34 34 33 28 31 35 34 32 31 32 34 35 41 35 32 33 26 31 29 30 29
46 44 41 40 37 36 40 43 43 42 42 42 39 39 36 34 30 28 31 30 31 32 34 34 32 34 36 37 33 31 46 75 48 52 38 36 30 31 27 29 31 30 31
33 37 40 34 36 42 45 48 47 46 44 40 40 39 37 35 30 26 30 32 31 29 32 33 34 37 35 34 35 45 81 84 60 78 37 30 31 30 24 33 37 33 32

GFSGL_sfc_rhum_021.txt.gz
RH
53 54 56 53 52 68 60 65 70 75 81 83 80 77 73 76 79 81 79 72 78 78 79 81 77 74 81 89 90 89 87 93 96 95 95 94 97 96 91 92 93 95 97
52 55 55 53 52 67 62 64 76 72 78 79 79 81 78 75 75 77 81 83 86 88 88 83 82 77 79 85 89 87 92 90 94 90 91 97 98 98 98 98 99 97 97
51 52 51 50 55 71 67 66 72 68 69 71 75 78 77 75 78 79 81 85 87 90 91 93 91 86 95 90 89 88 88 90 91 93 99 99 99 98 98 98 98 98 98
45 46 51 51 55 63 63 61 68 66 68 74 75 73 73 73 76 77 79 82 84 88 91 90 90 92 93 91 94 97 95 97 98 99 99 99 99 98 99 99 99 99 98
48 46 51 52 55 63 60 61 65 67 67 69 75 70 61 60 65 73 74 75 80 83 86 89 90 89 92 93 91 97 93 96 99 99 99 98 99 99 99 99 98 98 98
50 50 54 60 59 71 63 65 75 72 72 71 67 70 64 56 92 90 78 73 74 75 77 76 74 76 82 88 88 89 88 93 94 95 97 98 96 93 94 97 96 98 99
69 52 54 62 70 72 63 64 77 78 77 71 70 66 67 68 90 91 85 67 69 70 70 65 57 56 70 65 80 78 79 83 84 82 84 82 85 91 91 93 92 90 92
63 64 66 74 74 73 70 76 80 77 77 75 74 75 68 66 87 89 86 62 63 63 62 62 63 62 69 55 54 54 55 59 61 53 68 70 73 77 82 80 81 84 85
61 66 70 74 77 87 80 82 80 79 76 74 72 74 70 70 86 84 78 57 61 63 63 70 55 58 89 84 55 58 55 49 65 72 70 73 73 73 69 59 56 56 57
63 68 73 83 87 91 92 90 87 84 74 70 72 74 80 69 92 86 75 51 58 51 57 60 86 77 87 83 64 60 61 56 52 54 53 59 55 55 60 62 40 47 66
72 76 84 92 98 97 95 95 92 80 79 72 76 72 75 89 83 89 82 54 57 50 45 48 54 82 84 80 75 60 63 57 60 45 35 29 31 35 35 44 58 40 43
80 82 86 93 97 98 97 98 98 90 81 79 81 67 67 76 94 89 85 82 71 51 51 47 56 80 76 76 57 68 69 69 35 28 26 27 28 29 36 44 58 54 49
83 88 91 93 95 97 98 99 100 99 91 92 99 99 99 98 83 86 86 82 81 54 47 59 74 77 67 53 62 61 70 33 28 28 28 29 30 33 48 48 56 58 55
85 88 90 92 95 96 98 99 99 99 99 100 99 96 98 89 88 78 68 53 67 60 66 52 62 62 69 48 44 40 30 30 30 28 29 28 28 29 29 28 30 32 34
75 74 75 77 84 93 97 97 98 100 99 98 92 91 90 84 84 88 72 60 49 55 63 56 52 34 32 32 33 32 31 32 31 31 30 28 27 29 30 29 29 30 30
68 62 63 64 65 68 74 80 91 94 96 96 95 86 81 88 85 85 81 75 75 72 50 42 34 32 31 30 31 31 32 35 31 30 29 27 27 28 30 30 30 30 31
67 64 56 56 53 56 59 64 73 78 87 88 89 87 83 81 85 84 82 75 69 67 39 32 33 33 32 30 28 28 29 33 48 31 30 29 28 29 33 29 30 29 31
54 58 38 33 31 32 35 38 40 45 49 53 75 65 79 82 85 82 82 75 34 45 34 29 31 32 31 31 29 30 31 33 33 32 32 29 29 27 26 28 27 29 28
27 22 22 21 21 27 22 21 21 27 30 37 41 54 62 83 83 79 80 40 35 24 24 26 30 31 31 31 33 36 40 34 34 36 36 31 30 28 28 25 26 40 31
29 47 36 24 22 22 22 22 24 27 29 28 28 28 31 43 35 31 30 32 26 23 22 25 27 31 31 36 36 36 36 38 37 32 34 30 30 29 27 25 24 25 28
23 26 52 22 22 22 23 24 25 24 22 21 25 35 64 28 25 26 26 26 26 24 24 25 24 26 31 34 36 35 32 29 31 32 31 30 30 29 29 27 25 24 24
24 24 23 23 25 27 26 26 27 25 24 22 22 30 53 23 22 20 22 22 22 24 24 28 25 24 23 28 31 32 32 30 29 28 30 28 28 28 27 25 24 24 24
24 24 25 26 29 43 32 27 25 26 25 24 23 21 23 21 20 20 20 20 22 24 25 27 28 26 23 26 27 29 27 28 27 27 28 29 29 28 28 26 22 24 24
25 27 29 30 36 30 28 28 29 44 29 26 24 25 23 23 22 24 24 24 24 25 27 27 27 26 27 26 25 25 25 27 27 26 29 29 30 32 27 27 21 22 23
37 36 42 46 48 33 37 31 34 32 29 39 36 40 34 31 29 26 26 26 28 29 28 27 27 28 30 31 29 25 44 54 35 57 27 30 32 35 28 25 22 20 24
32 43 32 31 30 30 31 33 34 33 32 30 30 31 30 29 30 31 34 40 34 29 29 31 30 29 30 28 29 40 66 70 44 56 31 28 28 28 27 27 26 22 24

GFSGL_sfc_rhum_024.txt.gz
RH
66 66 69 66 74 74 83 78 81 85 85 84 86 87 86 89 87 90 88 87 88 92 89 90 89 88 93 93 94 93 92 93 97 95 98 98 98 97 93 93 93 96 97
66 66 67 68 71 75 80 78 78 83 82 83 83 84 82 84 86 87 87 87 89 91 92 91 92 93 96 96 97 96 97 96 98 95 97 99 98 97 97 98 98 96 97
63 64 64 68 75 76 77 77 77 82 80 77 79 82 83 85 87 86 86 88 90 90 89 93 93 90 94 94 91 88 90 95 93 96 99 99 99 98 99 98 98 98 97
56 57 63 72 76 71 73 78 76 78 79 76 78 79 79 80 83 84 84 87 87 89 91 91 91 92 94 94 95 96 96 96 96 98 99 99 99 98 98 99 99 99 99
56 55 67 74 80 71 73 77 77 78 70 74 73 72 72 72 74 88 84 84 86 85 85 84 88 89 92 92 92 97 95 96 98 99 99 98 99 99 99 99 99 98 98
56 52 69 78 80 81 78 79 78 78 74 76 74 74 75 67 92 91 86 84 84 85 80 83 84 80 84 87 87 88 90 95 95 92 96 96 97 95 97 97 97 98 99
59 68 77 70 75 82 79 83 80 80 75 79 78 78 78 79 88 88 84 81 80 79 80 78 67 66 77 74 79 76 77 85 86 86 89 90 92 94 95 96 94 92 93
78 74 76 80 76 80 83 86 85 80 77 76 82 80 79 77 87 85 83 78 76 78 78 75 76 78 83 70 66 63 60 66 75 66 82 83 82 87 90 90 91 92 90
72 74 72 82 88 84 92 92 87 84 85 84 81 80 81 82 86 87 82 75 75 75 74 82 74 79 86 86 71 74 71 62 64 73 74 74 72 71 77 82 89 87 82
72 81 82 88 96 95 93 94 90 85 84 78 80 82 87 81 89 87 80 70 74 67 74 76 83 82 84 81 77 79 81 78 72 70 71 73 68 70 72 81 69 71 77
82 84 89 93 98 98 97 98 94 89 87 83 82 83 83 88 83 87 83 68 70 65 60 64 67 80 80 80 78 78 82 79 71 73 70 70 68 63 66 73 78 68 72
87 88 91 94 96 98 98 98 98 97 93 90 86 79 82 83 90 85 84 83 75 64 65 65 71 74 69 71 67 67 67 71 65 65 58 60 61 64 69 75 79 79 77
90 92 92 93 96 97 98 99 99 98 98 99 99 97 98 97 95 83 80 77 79 68 58 68 69 69 69 61 60 59 69 60 64 61 63 63 64 61 70 75 79 76 75
87 87 86 88 90 92 96 98 99 99 99 99 99 99 98 90 80 69 72 62 66 59 64 64 67 68 66 59 56 64 60 59 64 64 62 59 61 64 63 62 72 77 74
79 78 77 76 80 87 94 97 97 99 98 98 98 96 96 89 80 86 78 66 68 70 68 68 66 61 58 63 60 58 62 64 64 63 63 61 58 60 59 61 62 64 64
73 67 66 67 68 71 76 82 92 94 96 96 94 87 86 92 89 85 79 75 74 76 66 63 63 59 54 55 57 57 58 57 64 61 60 60 59 57 60 64 59 59 60
73 69 61 61 63 67 68 70 76 77 88 89 88 87 86 82 84 81 79 78 70 70 58 54 59 57 57 54 53 53 56 64 69 64 60 56 56 57 52 61 58 58 60
64 65 52 48 46 50 57 57 57 61 60 62 77 70 78 80 81 78 78 74 50 58 49 49 56 56 55 56 56 58 58 61 60 61 60 56 54 56 54 54 52 56 57
45 32 33 32 31 38 35 30 27 38 47 52 53 62 66 80 81 77 78 51 49 45 42 46 52 54 55 56 60 66 68 64 61 65 64 62 60 54 57 48 49 51 49
38 48 39 32 27 29 26 26 29 39 43 41 42 40 42 51 45 45 47 46 42 36 36 42 47 54 55 60 62 65 62 61 62 59 59 57 61 55 51 50 46 47 50
24 28 48 24 25 25 26 30 31 30 30 30 38 44 52 39 34 36 36 38 37 36 42 43 34 41 55 62 59 58 54 52 56 58 58 59 59 51 56 54 49 46 45
28 28 26 26 29 32 30 30 31 29 28 27 33 40 56 29 25 28 34 35 35 41 37 46 35 35 33 44 57 55 51 50 53 54 54 51 52 52 51 48 47 46 45
26 26 27 29 32 47 37 35 43 36 38 37 34 30 26 28 26 27 28 28 36 38 40 42 41 38 38 45 47 52 40 47 49 51 53 51 52 51 50 50 44 42 41
28 30 38 49 47 36 41 38 34 46 34 32 34 44 41 41 33 37 35 36 37 39 45 43 41 34 41 46 46 42 41 46 47 45 52 50 49 50 46 48 40 39 36
37 45 44 51 42 44 42 36 37 42 45 34 33 36 42 48 45 39 42 45 48 50 46 42 44 43 41 42 40 37 51 50 46 54 46 47 48 52 46 42 42 41 38
45 42 48 47 42 37 41 44 46 41 32 34 36 46 36 32 29 30 40 49 48 51 52 54 58 60 57 44 50 61 65 64 53 63 48 49 46 42 38 42 42 38 38

GFSGL_sfc_rhum_027.txt.gz
RH
83 84 80 82 83 89 95 91 82 92 85 81 90 89 88 95 95 96 94 96 97 97 95 97 98 98 99 99 98 98 97 97 96 99 99 98 98 98 98 94 94 96 97
76 78 83 83 85 94 94 89 82 80 82 77 92 91 94 90 94 91 94 93 92 96 93 94 95 94 98 98 98 98 99 99 99 100 99 100 99 98 98 98 97 96 96
75 78 76 87 89 90 91 86 78 82 90 87 92 96 95 88 88 88 91 92 92 93 93 95 95 95 98 96 99 99 99 99 99 99 100 99 99 98 99 98 98 99 97
74 77 79 86 89 86 89 88 85 82 91 90 91 94 93 90 85 84 84 89 89 94 96 97 98 99 98 98 99 99 99 99 98 99 99 99 99 99 98 99 99 99 99
70 71 86 90 82 82 92 91 89 77 81 90 90 90 88 85 82 87 86 89 92 94 94 95 95 90 91 94 99 99 98 99 99 99 99 98 99 100 99 99 99 98 98
70 76 90 91 91 94 94 92 88 75 84 92 93 91 92 76 90 89 87 83 85 85 96 94 91 86 84 83 81 86 95 97 98 98 97 98 98 97 98 97 97 99 99
86 92 93 90 90 92 93 93 89 80 80 94 94 94 95 91 86 87 88 90 83 81 82 88 74 75 79 71 69 72 78 87 90 83 96 96 96 97 96 97 97 96 97
94 93 95 96 97 93 93 91 93 87 77 76 92 94 93 83 87 86 87 87 90 88 90 90 91 88 91 66 61 57 58 71 83 76 88 80 78 95 94 95 96 97 98
94 96 95 97 97 97 94 94 94 90 83 79 88 90 94 87 89 87 89 89 89 84 81 87 87 84 85 84 69 65 64 57 66 76 75 75 76 80 86 94 97 99 98
96 97 98 98 98 99 97 96 95 93 88 82 86 96 92 89 87 87 87 88 90 86 87 80 80 79 82 89 82 83 81 75 66 69 69 70 75 78 82 86 93 96 98
96 97 96 96 99 99 99 98 98 92 92 87 89 95 93 89 82 88 88 75 85 84 81 84 77 80 78 81 79 79 82 80 74 85 86 83 76 84 88 88 89 83 88
96 93 95 96 98 98 98 99 99 98 95 91 88 93 89 88 87 82 84 84 77 67 75 71 69 73 74 71 65 66 68 67 70 81 70 72 78 77 84 88 86 87 88
92 95 96 96 97 98 99 99 99 99 99 99 99 99 98 97 92 80 80 80 78 61 56 65 64 63 64 65 59 62 69 68 76 70 70 66 56 66 84 88 86 86 84
92 92 90 90 94 92 96 99 99 99 99 99 99 99 98 94 82 72 64 60 64 56 63 61 69 75 74 75 52 64 57 59 67 67 66 66 76 72 70 83 93 93 89
88 92 94 97 98 97 98 99 99 100 99 98 98 97 98 92 85 84 80 72 74 72 66 60 62 66 62 64 77 70 66 68 66 66 62 63 64 71 63 59 59 71 88
92 91 94 96 97 98 99 98 91 95 95 95 94 89 90 92 87 81 80 78 75 71 70 80 86 87 86 77 72 72 69 70 71 66 67 61 64 54 48 53 60 60 61
90 90 90 90 94 97 97 98 98 91 90 89 88 87 86 83 81 82 80 80 74 69 75 79 79 75 67 64 67 76 67 63 63 70 57 60 50 56 54 49 58 57 62
90 86 88 85 85 90 93 91 90 91 96 91 84 81 80 78 78 79 78 73 71 78 71 65 76 63 63 63 72 72 78 70 75 67 62 57 54 55 52 55 56 57 49
87 75 63 58 68 76 81 81 82 83 86 88 82 78 75 76 77 76 78 67 66 68 71 73 67 60 56 68 73 72 71 72 64 64 64 64 64 66 55 55 59 51 47
50 55 52 46 46 54 50 48 55 74 80 79 76 72 72 78 70 66 68 66 69 70 64 54 65 63 69 70 68 68 70 74 66 67 63 62 61 67 51 56 58 56 48
44 42 56 55 51 48 48 46 52 56 60 68 62 61 70 65 65 63 62 63 62 63 56 49 51 65 68 73 70 72 67 65 67 75 74 67 66 68 60 57 55 54 54
48 49 47 45 43 53 54 55 54 49 49 56 59 61 73 62 52 46 52 56 54 57 52 49 46 52 52 61 72 69 63 65 63 62 66 67 62 60 62 58 54 55 52
48 50 48 53 55 59 57 58 53 50 52 53 46 48 50 46 43 40 39 42 48 52 54 55 50 49 49 50 60 72 64 63 60 61 64 58 62 62 62 60 58 54 52
57 54 54 53 47 47 54 54 52 61 57 54 53 47 42 41 42 41 46 50 50 48 54 53 54 47 50 56 60 57 60 57 59 54 53 57 54 58 58 61 61 58 54
62 62 59 58 55 54 51 59 57 60 52 48 57 55 51 61 62 58 63 60 64 61 64 65 73 76 77 76 77 77 88 85 55 65 61 52 51 49 52 61 63 60 56
54 55 53 54 58 54 56 57 52 53 45 44 50 54 60 62 63 63 64 66 64 69 71 76 79 79 79 80 84 89 92 95 85 86 66 59 58 59 57 53 53 59 58

GFSGL_sfc_rhum_030.txt.gz
RH
91 90 91 93 95 94 94 94 93 89 79 90 94 97 97 97 97 98 97 97 98 98 98 98 98 98 99 99 99 98 99 98 99 100 99 99 99 98 98 94 95 96 96
86 87 91 92 95 95 93 88 76 89 93 89 96 97 97 97 97 91 90 92 97 98 98 98 98 94 98 99 99 99 99 99 98 98 99 100 99 99 98 98 97 95 96
84 87 92 94 95 95 93 89 87 91 94 96 96 97 97 96 96 97 97 95 97 98 98 99 99 98 99 99 99 99 99 99 98 98 99 99 99 98 99 98 98 98 96
76 85 93 91 92 95 93 93 93 93 94 96 96 96 96 96 96 95 96 96 96 96 98 98 98 97 98 99 99 99 99 99 97 98 99 99 99 98 99 99 100 98 99
77 83 86 92 93 97 95 93 88 89 95 95 95 95 93 90 90 95 95 96 95 94 95 93 90 83 84 92 99 98 98 99 99 99 99 98 99 99 99 99 99 97 98
82 87 94 93 96 97 96 93 88 94 95 95 96 95 92 76 89 92 90 91 95 95 97 94 92 82 78 82 86 93 93 97 97 95 97 98 99 98 98 97 97 99 99
92 96 96 95 95 97 96 94 88 91 93 96 96 95 92 88 89 93 91 93 96 96 91 88 78 73 70 65 70 78 87 91 90 91 97 97 97 97 96 95 96 95 97
97 98 97 97 97 97 97 93 92 88 86 96 91 94 87 81 89 92 88 88 93 96 94 91 90 86 78 58 57 58 66 84 90 80 86 82 92 95 95 96 96 98 99
97 98 98 98 97 97 96 94 94 89 83 85 87 89 87 83 90 90 89 86 85 85 87 87 83 83 88 75 64 67 67 64 67 81 83 86 87 90 95 92 97 97 99
99 99 98 94 98 99 97 97 96 94 89 88 87 92 89 83 88 92 91 88 86 86 87 79 78 78 90 84 73 76 85 89 76 75 76 80 82 86 82 88 94 99 95
98 98 98 97 99 99 98 98 98 95 92 86 87 86 86 85 73 88 90 75 72 83 82 80 72 80 83 83 86 82 79 79 71 89 89 80 82 91 88 92 92 95 94
98 96 97 97 98 99 99 99 98 97 96 91 92 98 90 81 85 82 89 85 80 74 71 78 71 73 75 72 60 71 79 77 75 82 93 79 78 83 91 87 89 92 92
97 98 95 97 97 99 99 99 99 98 99 99 98 99 99 97 88 80 82 82 77 63 56 63 75 78 75 64 69 72 67 70 70 66 70 70 65 78 88 89 89 86 85
97 92 90 91 93 93 96 99 99 99 99 99 99 99 98 92 73 69 64 59 68 66 69 65 72 71 71 70 66 73 70 71 66 70 70 74 84 77 77 91 93 93 91
90 90 94 96 96 98 98 98 99 100 99 98 98 96 97 91 78 83 75 67 69 63 65 62 67 78 74 76 78 76 69 69 60 67 63 64 66 71 69 73 69 84 94
98 99 99 99 100 99 98 99 91 95 95 95 94 90 89 91 86 82 80 80 75 71 60 69 81 91 88 76 72 79 78 69 73 68 66 63 66 55 48 55 68 62 63
97 97 98 98 99 99 99 99 99 94 90 89 89 89 90 86 81 80 79 76 75 67 70 73 78 74 72 78 77 74 70 73 74 76 64 65 57 55 56 58 62 56 56
95 94 98 98 98 98 98 98 98 97 96 93 86 86 86 83 80 78 77 72 68 79 76 71 74 76 68 69 75 77 76 70 78 77 70 67 64 69 64 61 62 61 54
95 96 96 97 98 97 98 97 96 95 94 94 92 82 81 80 80 79 79 62 60 66 74 83 77 73 65 72 76 78 76 74 70 71 67 68 68 72 67 62 61 66 58
92 86 82 79 86 94 95 92 92 91 90 86 82 77 77 78 71 64 64 62 64 69 75 64 73 68 72 74 74 73 72 73 75 75 73 72 70 71 69 60 62 61 58
50 51 55 56 57 62 72 74 81 85 84 81 74 71 76 67 62 64 64 66 64 66 66 63 69 67 71 76 74 75 72 67 72 74 78 76 77 73 72 70 64 59 60
48 45 49 54 57 56 55 54 59 65 71 74 77 72 82 70 66 65 64 64 63 63 64 61 54 56 59 65 72 75 72 70 71 73 72 73 76 77 74 69 65 62 60
54 51 52 53 53 63 65 66 63 65 62 56 61 61 64 68 66 59 49 47 52 60 62 58 51 57 60 66 71 78 79 73 70 70 67 69 66 68 70 67 62 63 62
60 56 60 61 62 60 64 59 68 66 61 60 55 52 52 51 54 65 68 69 60 73 80 75 84 84 82 84 83 83 86 92 76 70 67 70 68 66 64 64 62 60 63
69 68 62 64 64 63 57 55 56 59 57 67 64 68 72 76 75 76 77 78 79 80 81 82 83 81 81 82 83 87 93 95 88 93 75 65 62 61 59 59 59 60 62
65 67 73 71 64 63 64 60 58 59 62 65 72 75 77 78 78 76 78 82 82 84 82 80 70 76 76 74 75 82 90 92 91 94 92 86 73 66 60 58 59 56 57

GFSGL_sfc_rhum_033.txt.gz
RH
92 93 94 96 94 95 95 93 90 93 96 97 97 97 98 98 97 97 98 98 98 98 98 98 99 98 99 99 99 99 99 98 99 100 100 99 99 99 98 94 94 96 95
92 91 93 96 95 95 94 92 92 96 96 97 97 97 98 98 96 90 96 98 98 98 98 98 99 96 99 99 99 99 99 98 99 99 99 99 99 99 98 98 96 94 96
94 92 95 96 96 94 92 92 94 96 96 96 96 97 98 97 97 97 97 97 98 99 99 98 99 98 98 99 99 100 100 99 99 99 100 99 100 99 99 98 99 98 95
92 94 95 96 97 96 94 95 94 96 96 96 96 97 97 97 96 96 95 96 97 97 97 93 93 98 99 99 99 100 99 98 98 99 99 100 99 99 99 99 99 99 98
90 94 94 97 96 96 95 95 95 96 96 95 96 96 94 91 92 96 95 94 95 95 96 95 92 88 90 95 99 99 98 99 99 99 99 99 99 100 99 100 99 97 99
84 90 96 97 97 97 96 93 96 96 96 96 96 93 91 79 92 94 94 96 96 96 94 86 84 79 83 88 93 94 94 96 96 97 99 99 99 98 99 99 97 99 99
90 93 96 98 97 98 96 95 96 92 89 96 96 90 88 91 95 92 91 97 94 92 91 80 68 64 70 74 81 85 89 91 91 90 98 97 98 98 97 97 96 96 97
98 98 99 98 97 98 98 95 96 90 88 93 94 85 84 85 94 91 88 95 96 95 94 91 82 74 67 61 62 67 76 88 85 81 86 86 95 95 92 92 94 98 98
98 98 98 98 99 98 98 96 96 91 91 88 85 80 83 84 92 90 87 90 89 90 90 88 83 87 80 76 66 68 70 70 73 84 85 85 89 95 95 98 98 98 99
98 99 98 98 98 99 96 96 95 96 95 85 85 84 82 82 88 94 85 82 82 83 86 76 78 85 91 80 77 85 90 90 78 73 80 80 83 86 82 90 90 95 96
99 98 98 99 99 99 98 98 98 98 89 87 81 80 75 82 74 92 93 70 76 74 81 77 71 83 84 93 88 83 79 87 83 91 88 80 84 90 91 94 93 97 97
98 99 99 99 99 99 99 99 98 98 95 93 90 98 94 84 86 88 92 84 77 68 74 69 62 79 74 69 66 75 81 77 79 93 91 80 79 84 91 91 92 93 93
98 99 98 98 98 99 99 99 99 98 98 99 98 98 98 98 93 83 85 82 78 61 53 67 80 75 72 69 81 76 74 77 75 79 87 77 72 77 92 92 90 85 84
98 98 93 93 93 95 99 100 99 99 99 99 99 99 98 84 71 76 79 66 71 66 69 64 66 67 73 72 76 73 85 73 66 69 72 78 87 81 80 93 92 95 91
96 90 92 93 95 97 98 98 99 100 99 99 98 97 97 85 77 84 75 66 61 64 66 70 65 70 80 86 84 80 74 70 64 68 64 66 66 70 68 80 73 85 94
97 98 99 98 98 98 99 99 91 95 97 99 96 93 90 89 86 82 80 78 75 72 60 71 81 90 74 71 74 83 83 70 77 71 69 66 66 59 57 60 76 71 70
98 98 99 99 100 99 99 99 99 94 90 89 90 96 93 90 83 80 78 76 81 65 54 68 83 78 72 76 78 76 70 75 80 82 69 70 62 63 64 64 68 68 69
96 96 98 99 99 98 98 98 98 97 96 95 88 88 87 85 83 79 76 69 64 78 79 77 79 75 74 75 81 80 79 74 75 84 76 74 71 74 73 68 67 68 67
97 98 98 98 98 97 97 97 95 94 94 94 93 86 85 82 83 82 79 59 63 71 76 81 83 78 72 73 77 80 79 76 74 76 77 76 76 77 72 74 68 71 67
96 93 96 98 98 97 98 97 96 94 92 89 86 81 84 78 71 66 67 63 64 66 72 77 76 80 70 72 80 79 76 76 78 78 76 80 82 80 75 73 72 69 64
91 87 89 88 92 96 98 97 94 96 91 85 77 72 77 65 61 61 60 63 62 63 64 70 73 75 74 79 77 78 77 74 75 75 78 80 79 79 81 82 79 75 72
56 62 58 56 66 75 87 89 84 81 83 78 80 77 84 74 65 66 70 69 67 70 70 68 63 66 70 78 81 82 81 79 79 79 79 78 76 79 79 79 75 73 71
54 51 52 60 62 64 63 66 67 71 68 71 78 76 77 78 74 69 64 57 60 78 80 79 75 91 96 92 91 96 97 97 93 89 87 81 77 74 74 74 70 70 69
53 53 62 65 72 74 73 69 71 69 70 67 64 64 64 67 64 85 96 90 85 85 85 85 84 86 87 88 87 92 92 93 92 93 90 84 82 80 76 74 68 66 68
73 71 70 71 67 68 66 67 67 76 78 68 70 75 78 79 84 87 88 87 84 80 77 78 80 75 67 65 65 74 86 90 90 94 93 93 90 85 79 74 72 64 61
68 70 74 76 74 73 69 64 74 75 71 72 73 74 74 77 80 92 96 92 87 82 72 68 67 65 66 68 72 79 86 88 83 91 95 96 94 93 91 91 86 79 70

GFSGL_sfc_rhum_036.txt.gz
RH
93 92 92 93 92 93 91 90 93 95 95 94 94 94 93 94 93 95 93 93 93 95 93 94 96 96 99 98 97 98 98 97 99 100 99 99 98 98 97 92 92 92 92
93 92 92 92 92 92 90 91 92 94 94 93 93 93 92 91 91 91 92 93 95 94 93 95 95 91 98 98 98 98 97 98 99 99 99 100 99 98 98 97 95 90 94
92 92 93 95 95 92 90 92 92 93 93 92 92 93 92 90 89 90 92 92 93 92 92 93 95 94 96 96 97 96 97 96 95 98 100 99 99 98 98 97 98 97 93
90 93 93 95 95 94 93 92 92 92 92 93 93 93 92 90 87 86 87 88 88 88 89 91 93 96 96 95 96 98 98 98 98 98 99 99 99 99 98 99 99 99 98
91 90 93 96 95 95 95 94 92 92 91 92 90 88 87 86 84 85 85 87 87 82 83 82 86 89 94 92 92 97 96 97 99 99 99 99 99 99 99 99 99 97 96
90 91 94 95 96 96 96 95 94 92 92 91 89 85 85 80 96 93 89 85 83 80 82 78 75 79 87 90 92 92 92 94 95 95 98 99 98 99 99 99 99 99 98
92 92 95 96 96 96 95 96 93 91 90 92 89 85 88 90 95 94 91 81 81 80 77 72 58 58 75 77 81 81 82 89 91 89 94 95 96 95 94 96 94 96 92
97 94 96 96 95 97 97 97 96 89 90 89 86 84 87 87 94 94 89 84 85 84 82 76 72 72 70 71 72 70 72 78 78 68 81 84 91 91 90 88 93 96 94
98 97 96 97 97 97 98 98 97 91 91 86 83 82 83 85 93 91 87 82 81 82 78 80 77 75 78 78 68 72 73 70 69 83 84 86 93 93 90 79 87 83 88
96 98 95 94 97 98 97 97 96 94 95 81 81 80 81 80 92 92 81 72 77 72 75 75 79 84 84 83 74 73 72 73 66 66 65 70 75 76 80 78 72 81 84
98 96 96 98 98 97 99 98 98 98 93 84 81 78 80 82 85 95 87 71 69 68 66 64 60 84 90 87 83 71 74 78 78 72 61 59 63 64 63 70 80 76 77
98 98 99 98 99 99 98 99 98 98 94 88 86 96 90 80 88 94 94 84 76 67 69 62 63 79 80 82 68 85 87 73 61 69 61 57 57 59 65 69 78 74 70
98 99 99 99 99 99 99 99 99 98 98 98 98 98 98 94 92 84 88 83 77 62 59 72 78 74 73 74 84 81 76 62 64 66 67 61 55 56 73 78 78 77 74
98 98 98 96 94 98 99 99 99 99 99 99 98 98 95 78 72 75 75 66 74 67 68 63 67 71 79 72 66 64 62 58 55 54 54 56 59 58 56 61 63 65 65
96 96 93 91 92 97 98 99 99 100 99 99 98 97 95 78 76 81 76 78 63 69 70 68 68 67 64 64 63 61 58 55 53 54 50 50 49 47 47 54 55 55 60
94 93 96 95 95 95 95 97 92 96 98 100 98 89 84 86 86 82 78 78 75 75 61 62 66 62 54 54 56 60 59 57 57 55 53 51 49 49 48 48 52 53 52
94 97 97 97 97 96 94 94 96 89 91 91 95 95 92 88 83 79 77 81 79 67 53 59 63 58 56 57 56 55 52 56 68 58 57 54 51 50 50 50 50 51 49
93 96 94 94 93 93 91 90 88 88 88 84 85 84 90 85 81 78 75 68 53 63 58 56 59 58 57 56 57 57 57 56 54 57 57 55 54 54 52 51 51 52 49
90 91 90 90 90 89 85 81 77 78 75 78 76 77 77 81 80 80 76 48 53 53 55 57 61 60 58 56 58 62 64 57 56 56 56 57 56 55 54 51 50 67 61
88 91 90 88 87 84 81 72 70 71 68 66 63 61 65 63 56 54 54 50 47 48 49 54 55 62 62 61 61 63 58 58 58 56 55 56 58 57 54 53 51 51 50
82 84 87 82 79 78 76 74 70 68 66 61 60 61 75 51 47 46 44 47 47 46 49 50 49 53 58 61 61 60 56 55 56 56 56 56 57 53 55 55 54 52 51
80 82 83 79 77 80 78 78 77 73 70 67 63 63 84 52 46 47 52 52 50 52 51 56 49 49 54 61 67 62 60 61 64 64 62 60 59 56 54 52 50 49 48
58 62 67 66 64 70 70 71 71 70 66 65 68 61 61 58 55 52 55 55 67 69 68 64 65 67 68 72 72 69 65 69 71 71 71 66 61 57 56 54 51 50 48
49 50 51 53 56 54 56 56 58 67 59 56 59 64 61 62 58 72 74 72 69 70 68 66 64 61 56 52 49 46 54 67 68 68 73 68 64 67 64 64 60 58 53
54 58 58 62 63 63 63 59 57 64 59 58 59 67 72 79 78 71 72 68 65 62 61 55 48 47 46 45 44 44 74 89 66 83 62 65 67 72 67 65 66 63 63
64 64 63 62 62 59 57 64 62 71 68 65 70 72 75 77 76 70 69 66 58 52 50 48 46 46 45 44 47 71 84 87 67 86 49 43 43 43 44 52 58 63 66

GFSGL_sfc_rhum_042.txt.gz
RH
90 61 63 61 61 63 61 62 64 65 66 67 69 68 68 69 70 70 68 70 75 80 77 78 79 80 72 80 91 90 87 85 93 100 98 97 95 96 89 83 79 78 78
91 62 62 62 59 60 60 62 64 67 64 63 63 65 64 64 64 64 63 65 72 75 75 74 71 63 72 78 76 85 92 87 81 98 98 99 98 96 93 90 82 80 81
67 57 59 59 60 63 61 62 64 64 62 59 61 62 62 61 62 62 63 63 67 73 76 78 80 78 83 78 80 79 80 88 82 89 98 97 98 95 94 91 91 89 79
48 58 65 62 62 60 63 63 63 62 62 61 61 60 59 57 58 58 59 64 64 65 71 72 70 72 78 76 75 78 80 79 90 90 97 99 99 96 96 91 88 74 82
52 55 66 68 66 64 65 64 62 62 62 62 62 60 56 50 49 58 53 58 62 63 64 63 72 80 88 88 58 81 81 73 82 92 96 97 98 98 96 97 91 87 89
51 58 65 70 68 69 69 70 66 65 64 63 61 57 56 45 94 84 62 52 54 56 60 58 60 69 78 88 87 88 85 76 76 70 80 85 91 92 89 80 82 81 84
54 57 68 79 75 72 70 72 69 69 70 69 64 60 62 66 90 82 75 50 52 56 56 52 45 46 57 55 81 78 76 78 80 74 78 77 83 83 77 81 80 79 73
59 56 70 78 76 79 78 76 80 71 73 70 70 65 66 70 91 85 80 58 59 58 57 58 56 54 63 54 52 50 47 54 57 42 59 60 63 65 67 67 76 76 71
60 63 72 77 80 88 85 80 81 74 72 69 66 68 69 72 93 88 76 54 59 60 60 62 59 57 83 82 52 54 49 41 70 86 87 83 80 79 68 37 45 43 63
60 74 81 80 84 90 84 81 84 85 74 56 66 70 83 71 95 90 73 44 63 52 60 65 87 74 90 84 55 53 54 52 45 46 51 63 59 61 63 51 32 32 32
77 73 79 82 88 86 90 91 96 89 72 68 68 71 68 75 77 93 83 58 52 49 51 47 55 80 76 72 70 53 65 62 56 45 38 32 34 34 30 38 49 32 34
87 81 80 82 72 77 95 97 96 90 80 73 70 63 60 67 95 92 88 79 73 60 61 52 48 81 78 76 54 83 76 68 33 35 34 32 28 27 30 36 50 48 39
87 88 88 87 88 87 93 98 98 96 78 78 72 59 64 56 64 91 86 82 78 55 49 66 77 82 77 64 75 70 84 30 28 29 29 29 30 32 44 40 41 50 57
89 90 90 95 97 97 98 97 95 76 74 83 85 67 60 62 57 61 55 52 74 48 61 52 60 65 79 51 52 42 29 28 30 29 29 29 28 28 27 27 27 26 27
88 86 86 87 94 94 96 99 99 98 79 84 75 70 59 56 57 70 64 49 46 53 58 43 36 38 36 33 31 31 29 30 30 29 28 28 27 27 28 28 29 27 27
81 73 66 65 80 86 88 93 98 96 99 100 94 74 61 80 85 82 78 73 73 73 46 37 37 33 30 27 28 28 28 36 30 29 29 29 29 29 29 28 28 29 29
73 70 62 67 73 84 84 86 96 93 96 97 92 87 83 80 84 80 80 76 71 65 38 35 34 32 28 28 27 27 28 30 44 30 31 31 30 29 31 29 28 29 29
71 88 64 64 62 68 72 72 66 65 62 62 88 73 90 86 82 78 78 78 38 47 33 34 33 29 28 30 30 30 31 32 32 32 31 30 30 31 30 30 28 31 30
67 62 64 64 60 60 57 52 47 49 47 51 57 70 78 84 80 76 72 42 34 31 30 28 28 28 31 31 34 36 41 32 32 32 32 32 31 30 31 29 28 50 43
58 76 62 48 44 39 36 34 32 33 33 33 34 36 47 52 43 41 37 32 28 24 24 25 26 30 31 34 35 35 33 35 34 31 31 32 32 31 30 30 29 29 29
45 46 55 29 25 23 22 22 23 24 26 28 29 31 48 28 24 26 25 26 24 23 24 24 23 25 28 33 32 33 30 29 29 31 31 33 35 38 39 32 30 28 27
40 34 32 27 25 25 26 27 27 26 26 26 26 34 68 29 22 22 24 23 23 25 24 27 23 23 23 26 33 34 31 31 32 35 38 37 37 38 40 41 37 32 30
46 39 35 30 30 39 31 26 27 27 26 26 25 26 24 24 24 25 25 25 26 28 29 31 28 26 31 35 35 35 30 33 36 39 41 40 40 39 37 38 34 31 29
60 41 48 34 31 30 30 30 29 42 31 30 29 30 32 30 27 28 26 33 43 37 38 33 33 31 39 34 32 28 29 33 36 32 38 36 34 34 28 24 18 19 22
62 51 38 33 33 36 37 37 32 31 29 31 31 32 32 35 33 31 36 39 56 41 39 35 33 39 40 38 35 35 62 87 44 64 25 25 23 29 20 18 18 19 20
56 42 44 42 30 33 41 32 33 33 31 33 35 44 42 38 45 55 50 54 37 36 36 34 36 39 41 36 37 61 80 82 50 83 35 20 21 20 19 22 21 20 20

GFSGL_sfc_rhum_045.txt.gz
RH
71 76 59 56 58 58 57 57 59 61 61 64 62 62 62 65 68 67 71 75 81 82 78 78 78 78 91 82 90 91 91 92 91 99 98 98 96 95 91 84 75 76 74
65 61 58 56 54 57 56 56 58 61 59 58 58 59 59 59 60 59 58 72 77 80 74 79 77 65 82 80 69 86 92 87 74 98 98 99 99 97 92 87 78 75 72
59 53 53 53 56 62 58 57 58 58 57 55 57 59 58 57 58 58 58 62 70 74 73 75 78 79 83 80 78 77 76 78 72 80 97 99 99 98 95 88 88 84 73
45 46 52 53 61 59 65 59 59 57 56 57 58 57 56 54 55 55 58 61 60 62 67 68 68 75 79 75 79 84 83 84 88 89 95 98 99 97 97 95 80 73 72
50 48 54 60 62 72 69 60 58 57 56 56 57 56 51 48 48 54 55 57 60 60 61 60 68 76 86 86 63 77 81 78 87 95 98 98 97 98 94 82 81 67 73
46 48 59 67 64 71 67 66 61 61 60 58 55 52 51 41 81 83 64 52 54 57 59 58 67 72 78 86 82 83 81 80 80 75 76 79 85 79 73 72 68 76 89
53 51 62 73 70 79 72 75 66 72 67 64 60 57 60 61 83 81 77 50 54 56 56 53 46 45 57 56 76 73 72 77 82 82 88 82 83 86 87 79 78 73 76
70 58 65 71 73 77 79 80 75 72 70 71 63 72 65 66 85 82 81 56 58 57 57 56 56 58 63 57 49 51 54 63 65 47 66 63 68 64 68 64 72 72 66
81 69 65 67 70 78 81 81 82 83 76 73 64 76 68 69 87 88 88 56 58 59 60 70 57 54 88 82 53 55 53 46 70 80 75 76 75 72 65 40 68 38 47
84 79 60 70 71 78 84 80 88 79 73 67 72 69 80 71 88 88 77 47 59 60 61 64 86 70 77 75 56 55 57 53 48 58 59 66 65 59 60 60 37 34 34
85 74 73 90 92 86 82 86 79 78 80 79 68 69 68 74 76 88 83 53 62 58 48 54 62 74 74 71 73 57 66 64 54 49 42 35 35 36 32 42 54 38 36
90 78 78 87 83 88 84 90 89 92 93 89 73 67 60 69 90 86 85 79 69 53 57 46 47 76 73 70 53 74 73 69 33 34 34 32 29 29 31 39 51 50 40
85 87 94 92 94 87 92 96 96 96 98 94 70 57 58 58 62 88 83 80 77 58 49 60 72 76 76 53 64 66 77 34 28 29 29 30 30 32 46 48 44 58 63
89 91 92 94 99 98 97 93 91 88 94 87 68 70 70 56 58 59 57 56 72 53 60 43 56 62 68 55 44 46 29 28 30 29 30 29 28 29 29 29 29 28 28
85 86 88 91 96 99 100 100 99 94 91 71 63 74 61 58 56 73 65 50 47 51 52 50 40 38 39 36 32 30 30 32 30 30 30 30 28 28 29 28 31 30 30
78 73 73 80 83 90 92 96 98 98 99 97 91 75 60 82 85 79 75 73 73 72 43 36 39 37 32 27 28 29 29 36 31 31 31 30 30 30 31 30 29 30 32
80 70 66 72 72 84 84 90 96 92 95 94 89 85 76 81 84 80 76 71 72 69 44 37 36 33 29 27 26 27 28 31 48 32 32 32 30 30 32 30 30 30 30
75 91 61 58 66 72 78 75 64 72 87 78 86 74 89 85 84 83 80 80 44 51 38 34 34 32 28 29 28 29 30 32 32 32 32 31 31 31 30 30 28 31 30
65 57 57 57 57 62 65 67 67 73 67 61 60 70 78 84 81 78 79 45 38 34 33 31 31 29 29 30 33 36 40 33 31 32 32 32 31 30 30 28 27 48 43
69 76 69 54 52 56 54 54 50 49 46 44 48 49 53 59 52 50 47 44 37 28 27 26 27 28 30 34 36 36 34 38 38 34 31 30 31 31 30 31 31 30 29
58 61 62 48 43 39 35 34 32 32 31 28 29 34 58 42 32 34 35 33 26 24 24 24 22 27 30 34 33 33 30 28 28 27 28 30 33 31 32 31 30 31 30
53 61 41 37 28 24 23 21 21 21 23 25 26 37 66 34 22 24 25 24 23 24 22 25 23 23 24 30 41 30 28 28 28 29 32 34 34 33 32 31 31 31 30
57 72 45 36 28 35 23 21 22 23 23 24 24 26 26 27 24 23 23 23 23 24 26 27 27 24 25 31 32 32 29 30 32 35 37 37 36 34 33 33 30 27 25
50 72 57 43 32 39 29 31 25 34 27 26 28 30 27 25 24 26 24 24 27 29 31 30 29 27 27 32 32 30 30 34 36 33 37 37 35 34 26 23 19 17 18
47 68 60 60 60 52 38 32 42 44 37 44 44 47 33 32 34 32 39 28 32 34 35 35 33 35 38 39 30 33 61 82 46 58 26 30 26 26 23 19 20 19 20
52 56 56 52 56 46 35 42 39 46 50 52 42 42 32 31 32 38 38 40 44 39 36 32 33 36 38 37 37 63 77 72 52 79 32 20 19 20 19 22 23 19 21

GFSGL_sfc_rhum_048.txt.gz
RH
78 77 73 69 71 71 74 74 77 74 79 81 79 78 78 76 73 84 84 82 84 85 84 84 84 88 93 95 96 95 94 96 96 99 99 98 98 95 92 86 82 82 84
76 82 83 68 68 70 72 71 71 73 71 70 72 72 72 72 74 75 77 79 80 75 80 84 86 76 87 87 82 94 95 94 90 97 98 99 99 98 96 89 83 80 79
69 82 76 65 68 72 71 72 71 70 69 67 70 72 71 70 71 72 76 78 78 74 79 81 85 86 87 89 88 86 86 83 85 89 98 99 99 98 97 91 90 89 82
56 60 68 73 70 68 71 72 72 70 70 71 70 69 68 68 68 70 72 76 76 76 79 80 82 86 90 87 89 90 89 86 88 89 93 99 98 97 98 95 90 84 82
59 65 66 71 70 71 72 71 70 70 69 69 70 66 63 63 55 76 71 73 77 77 76 74 80 80 84 85 81 90 89 88 90 96 98 98 98 98 95 88 88 86 92
61 68 71 77 79 76 74 74 73 72 71 70 68 65 67 48 83 86 77 71 73 75 80 82 81 76 78 81 80 81 88 90 89 85 88 88 93 93 90 84 88 90 92
64 64 74 78 78 80 76 76 79 76 76 74 75 78 75 72 80 82 86 71 73 75 77 75 62 59 73 67 75 77 77 82 85 90 94 94 94 89 91 92 89 92 92
72 74 78 79 81 88 84 83 84 79 80 80 77 80 80 73 82 86 85 74 76 74 74 72 76 77 83 67 65 65 66 72 75 61 79 74 74 75 81 78 86 85 86
78 75 87 86 84 86 88 90 84 83 82 80 78 81 81 80 84 86 88 75 75 77 77 81 72 76 80 79 68 72 70 60 66 73 71 70 68 70 72 73 84 88 85
71 85 92 92 96 90 90 90 92 84 83 73 77 78 81 82 86 86 79 70 77 71 79 80 76 72 76 75 76 76 77 72 66 69 71 73 75 66 71 78 72 67 68
78 94 90 98 98 97 98 97 93 89 84 84 83 84 79 83 86 84 82 72 67 74 72 71 64 69 71 71 73 76 82 82 69 75 76 75 77 77 69 75 77 72 71
88 92 95 94 96 95 92 95 95 96 92 91 89 83 76 84 88 86 81 80 76 70 70 67 64 69 67 64 66 71 73 74 65 64 67 66 64 64 67 70 71 72 70
87 92 96 95 94 96 97 94 99 98 98 97 96 86 76 76 81 88 83 80 76 74 71 71 70 68 71 64 60 63 71 65 64 66 65 66 63 64 63 75 75 79 79
87 93 91 92 97 96 98 97 93 94 98 99 98 97 71 73 73 72 69 69 76 64 69 61 63 66 72 71 58 61 63 60 64 65 64 61 60 63 67 60 64 63 64
91 93 91 95 96 99 100 100 100 97 98 98 97 93 82 72 69 76 72 68 64 65 67 66 69 65 63 61 62 61 63 62 66 62 64 63 62 60 66 61 66 66 65
82 80 82 87 85 92 97 98 98 98 99 98 93 90 78 88 86 80 79 78 77 72 65 62 56 54 54 55 58 60 56 58 62 60 63 61 61 63 59 65 62 62 64
83 82 80 83 80 84 92 95 98 98 97 94 91 86 79 83 84 80 77 74 77 73 62 51 52 55 59 53 53 54 54 63 66 68 60 60 58 59 57 62 59 62 60
73 91 72 75 74 72 78 85 86 92 89 88 91 81 88 85 82 80 77 76 56 62 52 52 56 61 57 56 54 55 56 66 64 62 59 55 56 56 58 56 56 58 55
67 62 65 61 72 77 76 77 77 78 79 80 74 77 83 86 84 82 83 58 56 52 47 47 52 59 57 57 63 70 66 62 59 59 61 62 59 54 57 54 51 55 55
63 77 77 73 60 66 73 75 67 71 76 73 68 65 63 67 63 62 60 59 55 48 42 42 53 56 56 62 66 67 62 62 63 58 61 61 58 55 52 50 49 50 48
54 66 69 59 59 67 61 57 56 59 65 71 59 55 70 62 58 58 56 56 54 47 43 40 35 43 52 62 59 57 50 47 52 52 52 58 57 53 58 54 50 47 47
58 61 56 66 54 56 61 49 54 50 58 51 37 59 78 54 42 40 43 44 44 40 37 46 37 36 34 41 52 48 49 47 50 51 53 52 54 53 53 50 47 48 46
62 58 50 59 53 56 39 31 35 32 27 33 37 44 50 43 40 36 32 31 32 36 42 43 40 40 48 52 51 51 43 47 52 54 54 53 55 54 52 50 45 41 41
57 55 49 58 56 48 46 42 46 50 41 40 37 35 36 36 34 37 37 38 42 42 45 45 44 37 51 48 49 46 49 53 54 47 54 53 53 52 46 45 36 33 31
49 53 52 56 63 56 58 52 67 63 64 68 57 63 66 53 46 35 44 47 43 45 48 48 47 47 48 48 47 38 64 71 47 57 44 48 49 50 38 34 34 33 35
47 50 51 54 57 62 62 60 53 53 65 67 64 71 74 78 78 74 56 55 50 50 47 50 46 45 47 47 45 60 71 72 56 73 40 36 34 34 33 37 38 35 34